TimeEDT,TemperatureF,Dew PointF,Humidity,Sea Level PressureIn,VisibilityMPH,Wind Direction,Wind SpeedMPH,Gust SpeedMPH,PrecipitationIn,Events,Conditions,WindDirDegrees,DateUTC
12:13 AM,55.4,35.6,47,29.73,10.0,South,16.1,23.0,N/A,,Overcast,190,2012-10-10 04:13:00
12:33 AM,55.4,35.6,47,29.73,10.0,SSW,15.0,23.0,N/A,,Overcast,200,2012-10-10 04:33:00
12:53 AM,55.4,35.6,47,29.74,10.0,SSW,10.4,21.9,N/A,,Overcast,210,2012-10-10 04:53:00
1:13 AM,51.8,41.0,67,29.76,10.0,NW,21.9,29.9,N/A,,Overcast,310,2012-10-10 05:13:00
1:33 AM,50.0,41.0,71,29.78,10.0,NW,17.3,24.2,N/A,,Overcast,310,2012-10-10 05:33:00
1:54 AM,46.4,37.4,71,29.78,10.0,WNW,16.1,25.3,N/A,,Overcast,290,2012-10-10 05:54:00
2:14 AM,46.4,37.4,71,29.79,10.0,WNW,18.4,24.2,N/A,Rain,Light Rain,300,2012-10-10 06:14:00
2:34 AM,44.6,42.8,93,29.80,5.0,WNW,8.1,11.5,N/A,Rain,Rain,290,2012-10-10 06:34:00
2:54 AM,44.6,42.8,93,29.81,5.0,West,12.7,-,N/A,Rain,Light Rain,270,2012-10-10 06:54:00
3:14 AM,42.8,42.8,100,29.81,10.0,West,10.4,-,N/A,Rain,Light Rain,280,2012-10-10 07:14:00
3:34 AM,42.8,41.0,93,29.81,10.0,West,6.9,-,N/A,Rain,Light Rain,260,2012-10-10 07:34:00
3:54 AM,42.8,41.0,93,29.81,10.0,West,8.1,-,N/A,Rain,Light Rain,260,2012-10-10 07:54:00
4:14 AM,42.8,41.0,93,29.81,10.0,WSW,4.6,-,N/A,Rain,Light Rain,250,2012-10-10 08:14:00
4:29 AM,41.0,41.0,100,29.80,10.0,West,3.5,-,N/A,Rain,Light Rain,260,2012-10-10 08:29:00
4:49 AM,41.0,41.0,100,29.80,10.0,WSW,3.5,-,N/A,,Light Drizzle,250,2012-10-10 08:49:00
5:10 AM,41.0,41.0,100,29.81,10.0,WSW,5.8,-,N/A,Rain,Light Rain,250,2012-10-10 09:10:00
5:30 AM,41.0,41.0,100,29.81,10.0,WSW,6.9,-,N/A,,Light Drizzle,240,2012-10-10 09:30:00
5:50 AM,41.0,41.0,100,29.81,10.0,WSW,6.9,-,N/A,,Overcast,240,2012-10-10 09:50:00
6:10 AM,41.0,41.0,100,29.81,10.0,SW,5.8,-,N/A,,Overcast,230,2012-10-10 10:10:00
6:30 AM,41.0,41.0,100,29.81,10.0,WSW,6.9,-,N/A,,Overcast,250,2012-10-10 10:30:00
6:50 AM,41.0,41.0,100,29.82,10.0,WSW,8.1,-,N/A,,Overcast,250,2012-10-10 10:50:00
7:10 AM,41.0,41.0,100,29.83,10.0,WSW,4.6,-,N/A,,Overcast,240,2012-10-10 11:10:00
7:30 AM,41.0,41.0,100,29.83,10.0,WSW,10.4,-,N/A,,Overcast,240,2012-10-10 11:30:00
7:50 AM,41.0,41.0,100,29.83,10.0,WSW,6.9,-,N/A,,Overcast,240,2012-10-10 11:50:00
8:10 AM,41.0,39.2,93,29.84,10.0,WSW,10.4,-,N/A,,Mostly Cloudy,250,2012-10-10 12:10:00
8:51 AM,41.0,41.0,100,29.85,10.0,WSW,9.2,-,N/A,,Scattered Clouds,240,2012-10-10 12:51:00
9:31 AM,42.8,41.0,93,29.87,10.0,West,9.2,-,N/A,,Mostly Cloudy,260,2012-10-10 13:31:00
9:51 AM,42.8,41.0,93,29.87,10.0,West,11.5,-,N/A,,Scattered Clouds,270,2012-10-10 13:51:00
10:11 AM,44.6,41.0,87,29.87,10.0,West,10.4,16.1,N/A,,Scattered Clouds,260,2012-10-10 14:11:00
10:31 AM,46.4,39.2,76,29.87,10.0,West,13.8,19.6,N/A,,Scattered Clouds,270,2012-10-10 14:31:00
10:51 AM,46.4,37.4,71,29.88,10.0,West,16.1,20.7,N/A,,Scattered Clouds,270,2012-10-10 14:51:00
11:11 AM,46.4,35.6,66,29.88,10.0,West,15.0,23.0,N/A,,Scattered Clouds,280,2012-10-10 15:11:00
11:32 AM,46.4,33.8,62,29.88,10.0,West,15.0,24.2,N/A,,Scattered Clouds,260,2012-10-10 15:32:00
11:52 AM,46.4,32.0,57,29.89,10.0,West,16.1,25.3,N/A,,Scattered Clouds,270,2012-10-10 15:52:00
12:12 PM,46.4,32.0,57,29.89,10.0,West,17.3,25.3,N/A,,Mostly Cloudy,270,2012-10-10 16:12:00
12:52 PM,48.2,32.0,54,29.90,10.0,West,16.1,24.2,N/A,,Overcast,280,2012-10-10 16:52:00
1:12 PM,46.4,32.0,57,29.91,10.0,West,21.9,28.8,N/A,,Overcast,280,2012-10-10 17:12:00
1:32 PM,46.4,32.0,57,29.91,10.0,West,16.1,32.2,N/A,,Overcast,270,2012-10-10 17:32:00
1:52 PM,46.4,32.0,57,29.91,10.0,West,16.1,23.0,N/A,,Overcast,270,2012-10-10 17:52:00
2:12 PM,46.4,32.0,57,29.91,10.0,WSW,17.3,21.9,N/A,,Overcast,250,2012-10-10 18:12:00
2:32 PM,46.4,32.0,57,29.91,10.0,West,19.6,27.6,N/A,,Overcast,270,2012-10-10 18:32:00
2:53 PM,46.4,32.0,57,29.92,10.0,West,18.4,24.2,N/A,,Overcast,280,2012-10-10 18:53:00
3:13 PM,46.4,32.0,57,29.93,10.0,West,23.0,29.9,N/A,,Overcast,260,2012-10-10 19:13:00
3:33 PM,46.4,32.0,57,29.94,10.0,West,19.6,26.5,N/A,,Overcast,280,2012-10-10 19:33:00
3:53 PM,44.6,32.0,61,29.95,10.0,West,12.7,23.0,N/A,,Overcast,280,2012-10-10 19:53:00
4:13 PM,44.6,32.0,61,29.95,10.0,West,19.6,26.5,N/A,,Overcast,280,2012-10-10 20:13:00
4:33 PM,46.4,28.4,50,29.96,10.0,West,18.4,27.6,N/A,,Overcast,260,2012-10-10 20:33:00
4:53 PM,44.6,26.6,49,29.97,10.0,West,15.0,27.6,N/A,,Overcast,270,2012-10-10 20:53:00
5:13 PM,44.6,23.0,43,29.97,10.0,West,16.1,26.5,N/A,,Overcast,260,2012-10-10 21:13:00
5:33 PM,44.6,23.0,43,29.98,10.0,West,17.3,28.8,N/A,,Overcast,280,2012-10-10 21:33:00
5:53 PM,44.6,23.0,43,29.99,10.0,West,21.9,25.3,N/A,,Mostly Cloudy,270,2012-10-10 21:53:00
6:14 PM,42.8,23.0,46,30.00,10.0,West,13.8,26.5,N/A,,Scattered Clouds,270,2012-10-10 22:14:00
6:34 PM,42.8,23.0,46,30.01,10.0,West,18.4,24.2,N/A,,Clear,270,2012-10-10 22:34:00
6:54 PM,42.8,24.8,49,30.02,10.0,West,9.2,24.2,N/A,,Clear,270,2012-10-10 22:54:00
7:14 PM,41.0,26.6,57,30.04,10.0,West,10.4,18.4,N/A,,Clear,270,2012-10-10 23:14:00
7:34 PM,41.0,26.6,57,30.05,10.0,West,9.2,17.3,N/A,,Clear,270,2012-10-10 23:34:00
8:09 PM,41.0,26.6,57,30.06,10.0,West,6.9,16.1,N/A,,Clear,260,2012-10-11 00:09:00
8:29 PM,39.2,26.6,61,30.07,10.0,West,9.2,-,N/A,,Clear,260,2012-10-11 00:29:00
8:50 PM,37.4,28.4,70,30.08,10.0,WSW,6.9,-,N/A,,Clear,240,2012-10-11 00:50:00
9:10 PM,37.4,28.4,70,30.09,10.0,WSW,6.9,-,N/A,,Clear,250,2012-10-11 01:10:00
9:30 PM,37.4,28.4,70,30.09,10.0,WSW,8.1,-,N/A,,Clear,250,2012-10-11 01:30:00
9:50 PM,37.4,28.4,70,30.10,10.0,WSW,8.1,-,N/A,,Clear,240,2012-10-11 01:50:00
10:10 PM,37.4,28.4,70,30.10,10.0,WSW,6.9,-,N/A,,Scattered Clouds,240,2012-10-11 02:10:00
10:30 PM,35.6,28.4,75,30.11,10.0,SW,4.6,-,N/A,,Mostly Cloudy,230,2012-10-11 02:30:00
10:50 PM,35.6,28.4,75,30.11,10.0,SW,5.8,-,N/A,,Scattered Clouds,230,2012-10-11 02:50:00
11:10 PM,33.8,28.4,81,30.11,10.0,SW,4.6,-,N/A,,Clear,230,2012-10-11 03:10:00
11:30 PM,33.8,28.4,81,30.11,10.0,SW,5.8,-,N/A,,Clear,230,2012-10-11 03:30:00
11:51 PM,33.8,30.2,87,30.12,10.0,SW,5.8,-,N/A,,Clear,230,2012-10-11 03:51:00